Waarnemingen

Advertentie
Mijn weer
Rostock-Warnemünde, Duitsland (10170): temperatuur & dauwpunt: 19.06.2018 06:00:00 - 25.06.2018 06:00:00 (CEST)Rostock-Warnemünde, Duitsland (10170): temperatuur 5cm & temperatuur -5cm: 19.06.2018 06:00:00 - 25.06.2018 06:00:00 (CEST)Rostock-Warnemünde, Duitsland (10170): temperatuur -20cm & temperatuur -100cm: 19.06.2018 06:00:00 - 25.06.2018 06:00:00 (CEST)Rostock-Warnemünde, Duitsland (10170): windsnelheid & windstoten: 19.06.2018 06:00:00 - 25.06.2018 06:00:00 (CEST)Rostock-Warnemünde, Duitsland (10170): windrichting: 19.06.2018 06:00:00 - 25.06.2018 06:00:00 (CEST)Rostock-Warnemünde, Duitsland (10170): luchtdruk: 19.06.2018 06:00:00 - 25.06.2018 06:00:00 (CEST)Rostock-Warnemünde, Duitsland (10170): zicht: 19.06.2018 06:00:00 - 25.06.2018 06:00:00 (CEST)Rostock-Warnemünde, Duitsland (10170): Zonneschijnduur: 19.06.2018 06:00:00 - 25.06.2018 06:00:00 (CEST)Rostock-Warnemünde, Duitsland (10170): neerslag: 19.06.2018 06:00:00 - 25.06.2018 06:00:00 (CEST)
Datum & Tijd tt [°C] td [°C] tt 5cm [°C] tt -5cm [°C] tt -20cm [°C] tt -100cm [°C] ff [km/u] ff [kn] fx [km/u] fx [kn] dd ppp [hPa] vv [km] sd [min] rr [mm]
25.06.2018 06:00:00 14,5 13,2 14,6 16,1 18,1 17,8 22 12 32 18 W 1018,1 15 0 0,0
25.06.2018 05:00:00 14,7 13,4 14,6 15,8 18,2 17,8 25 14 35 19 W 1017,9 16 0 0,0
25.06.2018 04:00:00 14,8 13,5 14,4 15,8 18,4 17,8 24 13 33 18 W 1017,8 18 0 0,0
25.06.2018 03:00:00 15,2 13,9 14,7 15,7 18,6 17,8 23 12 33 18 W 1018,0 21 0 0,0
25.06.2018 02:00:00 15,2 13,7 14,0 15,9 18,8 17,8 19 10 31 17 W 1018,2 22 0 0,0
25.06.2018 01:00:00 15,5 13,5 14,3 16,1 19,1 17,8 24 13 37 20 W 1018,0 25 0 0,0
25.06.2018 00:00:00 16,0 13,9 14,6 16,4 19,4 17,8 28 15 35 19 WNW 1017,8 27 0 0,0
24.06.2018 23:00:00 15,9 13,3 14,5 16,9 19,7 17,9 25 13 31 17 WNW 1017,8 36 0 0,0
24.06.2018 22:00:00 15,8 12,2 14,6 17,9 20,0 17,9 23 12 27 15 WNW 1017,6 41 28 0,0
24.06.2018 21:00:00 16,2 11,9 15,6 19,5 20,2 17,9 20 11 24 13 WNW 1017,4 54 18 0,0
24.06.2018 20:00:00 16,1 11,4 16,3 21,8 20,2 17,9 20 11 28 15 WNW 1017,3 49 42 0,0
24.06.2018 19:00:00 16,4 11,0 18,1 24,1 20,0 17,9 22 12 28 15 WNW 1017,3 53 60 0,0
24.06.2018 18:00:00 16,3 10,7 19,3 24,9 19,6 17,9 18 10 25 13 WNW 1017,5 41 41 0,0
24.06.2018 17:00:00 16,3 11,1 19,8 25,2 19,2 17,9 19 10 29 15 WNW 1017,6 70 31 0,0
24.06.2018 16:00:00 16,1 11,9 21,9 24,8 18,7 17,9 19 10 29 16 W 1017,5 31 38 0,0
24.06.2018 15:00:00 15,5 10,7 19,4 23,4 18,3 17,9 21 12 28 15 WNW 1017,7 41 5 0,0
24.06.2018 14:00:00 15,5 10,5 19,5 21,7 18,0 17,9 22 12 35 19 NW 1017,9 39 1 0,0
24.06.2018 13:00:00 15,1 10,6 17,9 20,7 17,7 17,9 30 16 36 20 NW 1017,8 47 7 0,0
24.06.2018 12:00:00 14,7 11,6 16,2 17,9 17,5 17,9 25 14 37 20 NW 1017,8 45 5 0,0
24.06.2018 11:00:00 14,7 11,6 16,5 18,0 17,4 17,9 28 15 40 22 NW 1017,6 40 4 0,0
24.06.2018 10:00:00 13,9 12,2 14,3 16,4 17,4 17,9 31 17 41 22 NW 1017,3 17 0 0,0
24.06.2018 09:00:00 14,0 11,5 14,1 15,4 17,5 17,9 29 16 41 22 WNW 1017,2 31 0 0,1
24.06.2018 08:00:00 13,5 11,4 13,0 14,9 17,6 17,9 29 16 41 22 NW 1017,0 38 0 0,0
24.06.2018 07:00:00 13,3 11,5 12,6 15,1 17,8 17,9 27 15 38 21 NW 1017,0 36 0 0,2
24.06.2018 06:00:00 13,5 12,0 12,7 15,3 17,9 18,0 26 14 41 22 NW 1016,7 18 0 0,0
24.06.2018 05:00:00 13,8 11,9 13,5 15,4 18,1 18,0 30 16 42 23 NW 1017,0 34 0 0,0
24.06.2018 04:00:00 13,3 11,3 12,9 15,6 18,3 18,0 38 20 46 25 NW 1017,1 15 0 0,0
24.06.2018 03:00:00 13,7 11,5 13,6 16,0 18,5 18,0 39 21 56 30 WNW 1017,5 38 0 0,0
24.06.2018 02:00:00 14,4 11,0 14,2 16,2 18,7 18,0 42 23 51 27 NW 1017,5 30 0 0,0
24.06.2018 01:00:00 14,6 11,6 14,4 16,5 18,9 18,0 43 23 54 29 NW 1017,8 33 0 0,0
24.06.2018 00:00:00 14,9 11,7 14,7 16,8 19,1 18,0 43 23 54 29 NW 1018,0 31 0 0,0
23.06.2018 23:00:00 15,1 11,5 14,8 17,2 19,3 18,0 45 25 54 29 NW 1017,8 30 0 0,0
23.06.2018 22:00:00 15,5 11,9 15,2 17,8 19,6 18,0 41 22 56 30 WNW 1017,6 41 0 0,0
23.06.2018 21:00:00 15,6 11,2 15,6 18,5 19,8 18,0 45 25 55 30 WNW 1017,5 35 0 0,0
23.06.2018 20:00:00 15,7 11,2 16,0 19,4 19,9 18,1 41 22 49 27 WNW 1017,5 37 0 0,0
23.06.2018 19:00:00 15,8 10,7 16,7 20,4 20,0 18,1 39 21 56 30 WNW 1017,7 29 0 0,0
23.06.2018 18:00:00 15,9 11,0 17,0 22,0 19,9 18,1 41 22 54 29 WNW 1017,7 34 0 0,0
23.06.2018 17:00:00 16,0 10,0 18,4 24,7 19,5 18,1 42 23 56 30 WNW 1017,9 11 51 0,0
23.06.2018 16:00:00 17,0 10,7 20,8 25,2 19,1 18,1 42 23 54 29 WNW 1018,1 8 59 0,0
23.06.2018 15:00:00 16,4 10,2 18,9 23,4 18,7 18,1 40 21 53 29 WNW 1018,3 15 24 0,0
23.06.2018 14:00:00 16,0 9,0 19,0 22,9 18,3 18,1 45 24 55 30 WNW 1018,3 13 23 0,0
23.06.2018 13:00:00 16,2 10,5 20,3 22,2 17,9 18,2 42 23 55 30 WNW 1018,4 11 36 0,0
23.06.2018 12:00:00 14,9 9,5 17,3 20,6 17,6 18,2 43 23 53 29 WNW 1018,1 21 8 0,0
23.06.2018 11:00:00 14,9 9,6 17,3 20,0 17,3 18,2 41 22 51 27 WNW 1017,7 21 24 0,0
23.06.2018 10:00:00 14,9 9,7 17,7 18,9 17,1 18,2 41 22 53 29 NW 1017,5 25 38 0,0
23.06.2018 09:00:00 14,2 8,7 16,0 17,5 16,9 18,2 43 23 55 30 NW 1017,2 24 35 0,0
23.06.2018 08:00:00 13,8 8,5 14,4 16,5 16,9 18,2 45 25 58 31 NW 1016,8 24 27 0,0
23.06.2018 07:00:00 13,6 9,0 13,5 14,6 17,0 18,2 49 27 62 33 NW 1016,5 23 4 0,0
23.06.2018 06:00:00 13,5 9,1 13,3 14,3 17,1 18,3 47 26 63 34 WNW 1016,4 14 0 0,0
23.06.2018 05:00:00 13,4 8,6 13,1 14,2 17,3 18,3 50 27 64 35 WNW 1016,1 19 0 0,0
23.06.2018 04:00:00 13,4 7,8 12,9 13,9 17,5 18,3 51 28 67 36 WNW 1016,2 15 0 0,0
23.06.2018 03:00:00 13,3 7,9 12,7 14,1 17,7 18,3 52 28 66 36 WNW 1016,3 17 0 0,0
23.06.2018 02:00:00 13,4 8,2 13,1 14,7 17,9 18,3 55 30 70 38 WNW 1016,3 14 0 0,0
23.06.2018 01:00:00 13,8 8,5 13,5 15,0 18,1 18,3 57 31 71 38 WNW 1016,5 13 0 0,0
23.06.2018 00:00:00 14,1 8,7 13,9 15,1 18,4 18,4 55 30 71 38 WNW 1016,6 14 0 0,0
22.06.2018 23:00:00 14,3 9,6 14,1 15,6 18,6 18,4 46 25 66 36 WNW 1016,4 21 0 0,0
22.06.2018 22:00:00 14,6 9,5 14,4 16,1 18,9 18,4 55 30 71 38 WNW 1016,4 17 0 0,0
22.06.2018 21:00:00 15,2 10,6 15,1 17,2 19,1 18,4 51 28 69 37 WNW 1016,3 11 21 0,0
22.06.2018 20:00:00 15,1 10,4 15,1 17,7 19,3 18,5 50 27 69 37 W 1016,3 16 0 0,0
22.06.2018 19:00:00 15,7 9,1 15,9 19,0 19,4 18,5 44 24 66 36 WNW 1016,5 18 0 0,0
22.06.2018 18:00:00 16,0 9,3 16,9 21,0 19,3 18,5 49 27 66 36 WNW 1016,4 12 28 0,0
22.06.2018 17:00:00 16,8 9,8 18,8 23,5 19,0 18,5 48 26 59 32 WNW 1016,1 8 56 0,0
22.06.2018 16:00:00 17,2 9,6 19,5 25,6 18,5 18,6 34 18 45 24 WNW 1015,8 10 60 0,0
22.06.2018 15:00:00 16,9 9,5 20,4 25,6 17,9 18,6 36 20 48 26 WNW 1015,9 10 60 0,0
22.06.2018 14:00:00 16,5 10,2 20,4 23,7 17,3 18,6 34 18 45 25 W 1015,8 12 58 0,0
22.06.2018 13:00:00 15,7 9,5 19,5 20,8 16,9 18,6 35 19 45 24 WNW 1015,5 16 54 0,0
22.06.2018 12:00:00 15,1 9,6 17,7 18,8 16,5 18,6 35 19 46 25 WNW 1015,1 26 50 0,0
22.06.2018 11:00:00 14,5 9,0 17,1 18,2 16,2 18,7 34 19 47 26 W 1014,7 19 60 0,0
22.06.2018 10:00:00 14,0 8,4 16,4 16,4 16,0 18,7 38 21 48 26 WNW 1013,9 16 39 0,0
22.06.2018 09:00:00 13,4 10,1 15,9 14,6 16,0 18,7 33 18 46 25 W 1013,2 31 24 0,0
22.06.2018 08:00:00 12,7 9,3 13,2 12,9 16,0 18,7 34 19 45 24 W 1012,6 42 2 0,0
22.06.2018 07:00:00 12,5 9,6 12,0 12,4 16,1 18,7 36 19 47 26 W 1012,0 46 0 0,0
22.06.2018 06:00:00 12,0 9,0 11,1 11,9 16,2 18,7 37 20 58 31 W 1011,8 36 0 0,2
22.06.2018 05:00:00 11,5 8,7 10,4 11,6 16,3 18,7 40 21 57 31 W 1011,9 1,4 0 0,6
22.06.2018 04:00:00 11,6 8,9 10,4 11,6 16,5 18,8 25 14 46 25 W 1011,9 4,7 0 0,1
22.06.2018 03:00:00 12,1 7,8 11,7 11,7 16,7 18,8 30 16 60 33 W 1012,0 42 0 0,0
22.06.2018 02:00:00 12,7 8,8 11,7 11,5 16,8 18,8 45 24 65 35 W 1012,2 32 0 0,0
22.06.2018 01:00:00 12,5 8,1 10,7 11,4 17,1 18,8 43 23 62 34 W 1012,6 30 0 0,0
22.06.2018 00:00:00 12,8 8,4 10,7 11,4 17,4 18,8 43 23 74 40 W 1012,7 35 0 4,7
21.06.2018 23:00:00 12,1 8,5 10,2 12,2 17,9 18,8 52 28 80 43 WNW 1012,8 4,9 0 4,3
21.06.2018 22:00:00 13,3 8,6 11,5 13,1 18,1 18,8 46 25 68 37 WNW 1012,6 39 11 0,4
21.06.2018 21:00:00 12,5 9,2 11,2 13,0 18,3 18,8 32 17 70 38 W 1012,8 13 3 0,3
21.06.2018 20:00:00 13,2 8,6 11,8 13,6 18,6 18,8 35 19 83 45 W 1012,5 43 20 1,5
21.06.2018 19:00:00 12,4 8,7 10,7 13,3 18,9 18,8 44 24 67 36 WNW 1012,1 4,2 0 1,9
21.06.2018 18:00:00 10,8 9,5 10,2 14,3 19,2 18,8 59 32 89 48 WNW 1011,9 4,3 0 1,0
21.06.2018 17:00:00 11,6 9,0 11,0 14,9 19,5 18,8 40 22 61 33 WNW 1010,5 3,7 0 1,7
21.06.2018 16:00:00 13,2 9,7 12,4 15,8 19,7 18,7 32 18 58 31 W 1009,5 62 0 1,5
21.06.2018 15:00:00 12,1 11,0 12,0 17,0 19,8 18,7 43 23 66 35 W 1009,6 2,3 5 1,6
21.06.2018 14:00:00 15,3 10,5 17,2 17,8 19,9 18,7 16 8 36 19 WZW 1008,5 54 2 0,0
21.06.2018 13:00:00 14,8 10,2 14,4 16,4 20,1 18,7 24 13 37 20 W 1008,7 56 0 0,0
21.06.2018 12:00:00 14,2 9,5 12,7 15,5 20,3 18,7 30 16 40 22 WNW 1008,5 62 0 0,2
21.06.2018 11:00:00 13,7 10,5 12,4 16,1 20,6 18,7 33 18 42 23 WNW 1009,6 31 0 1,6
21.06.2018 10:00:00 13,2 10,8 12,4 16,1 21,0 18,7 24 13 43 23 WNW 1008,9 10 0 3,3
21.06.2018 09:00:00 14,8 11,5 13,4 17,1 21,3 18,7 33 18 45 25 NW 1008,9 52 0 1,0
21.06.2018 08:00:00 14,6 13,6 14,4 18,0 21,7 18,7 40 22 52 28 NW 1009,4 3,5 0 3,6
21.06.2018 07:00:00 16,7 16,0 16,2 19,1 21,9 18,7 9 5 25 13 W 1009,8 3,1 0 0,5
21.06.2018 06:00:00 16,7 15,2 16,7 18,8 22,1 18,7 8 4 13 7 ZZW 1010,1 10 0 0,0
21.06.2018 05:00:00 16,8 15,3 15,7 18,6 22,4 18,7 9 5 37 20 ZZW 1011,0 12 0 0,0
21.06.2018 04:00:00 17,3 15,2 16,1 18,7 22,7 18,7 10 6 20 11 ZW 1011,9 12 0 0,0
21.06.2018 03:00:00 17,9 15,5 16,7 19,3 23,0 18,6 11 6 24 13 ZW 1012,6 10 0 0,0
21.06.2018 02:00:00 17,8 15,9 16,4 19,9 23,4 18,6 11 6 18 10 ZZW 1012,9 9 0 0,0
21.06.2018 01:00:00 19,0 16,0 17,4 20,5 23,7 18,6 13 7 27 15 W 1013,6 13 0 0,0
21.06.2018 00:00:00 18,2 17,2 16,2 21,5 24,0 18,6 7 4 16 9 W 1014,2 8 0 0,0
20.06.2018 23:00:00 19,1 17,4 18,5 23,2 24,3 18,6 14 8 32 17 NW 1014,5 10 0 0,0
20.06.2018 22:00:00 22,8 14,2 21,1 24,7 24,5 18,6 11 6 21 11 ZZW 1014,2 29 15 0,0
20.06.2018 21:00:00 24,4 13,9 23,6 26,9 24,5 18,6 11 6 26 14 ZW 1014,3 29 48 0,0
20.06.2018 20:00:00 25,5 13,5 25,8 29,4 24,5 18,6 13 7 32 17 ZW 1014,7 31 58 0,0
20.06.2018 19:00:00 26,2 13,8 27,8 31,6 24,2 18,7 16 8 35 19 ZZW 1015,4 32 58 0,0
20.06.2018 18:00:00 25,0 13,6 26,2 32,8 23,9 18,7 18 10 39 21 ZW 1016,1 38 40 0,0
20.06.2018 17:00:00 25,4 14,3 27,9 33,8 23,5 18,7 20 11 42 23 ZW 1016,8 38 42 0,0
20.06.2018 16:00:00 25,0 13,7 27,8 33,9 23,1 18,7 21 12 40 21 ZW 1017,4 40 43 0,0
20.06.2018 15:00:00 24,9 14,9 28,5 33,4 22,5 18,7 19 10 44 24 ZW 1017,8 29 36 0,0
20.06.2018 14:00:00 24,4 13,8 28,0 34,1 21,8 18,7 21 11 43 23 ZZW 1018,5 15 52 0,0
20.06.2018 13:00:00 24,5 13,0 29,6 32,3 21,2 18,7 24 13 44 24 ZZW 1019,3 23 59 0,0
20.06.2018 12:00:00 22,6 12,6 26,8 29,3 20,6 18,7 19 11 35 19 ZW 1020,1 21 57 0,0
20.06.2018 11:00:00 21,3 12,7 24,9 26,1 20,2 18,7 19 10 36 19 ZW 1020,5 28 25 0,0
20.06.2018 10:00:00 20,0 13,0 23,2 24,3 20,0 18,6 13 7 27 14 ZZW 1021,0 27 38 0,0
20.06.2018 09:00:00 18,1 11,9 20,7 21,2 19,9 18,6 11 6 18 10 ZZW 1021,4 37 36 0,0
20.06.2018 08:00:00 16,5 10,2 19,8 18,7 19,9 18,6 11 6 20 11 ZZW 1021,5 37 60 0,0
20.06.2018 07:00:00 14,4 10,6 16,0 15,9 20,2 18,6 11 6 16 9 ZZW 1021,8 34 60 0,0
20.06.2018 06:00:00 12,5 10,2 11,9 15,1 20,5 18,6 11 6 15 8 Z 1022,0 29 47 0,0
20.06.2018 05:00:00 12,1 10,2 11,1 15,4 20,8 18,6 12 7 21 11 ZZW 1022,1 25 0 0,0
20.06.2018 04:00:00 14,0 10,3 12,6 16,2 21,1 18,6 11 6 36 20 WZW 1022,0 36 0 0,0
20.06.2018 03:00:00 15,3 10,8 14,2 16,7 21,4 18,6 29 16 39 21 W 1022,0 36 0 0,0
20.06.2018 02:00:00 15,6 11,2 14,2 17,2 21,7 18,6 27 15 39 21 W 1022,1 32 0 0,0
20.06.2018 01:00:00 16,0 11,3 14,9 17,8 22,0 18,6 31 17 41 22 WNW 1022,2 31 0 0,0
20.06.2018 00:00:00 16,5 11,4 15,4 18,4 22,4 18,6 34 18 41 22 WNW 1022,1 34 0 0,0
19.06.2018 23:00:00 17,0 12,1 15,8 19,3 22,7 18,6 33 18 41 22 WNW 1022,0 32 0 0,0
19.06.2018 22:00:00 17,3 11,9 16,3 20,8 23,0 18,6 32 17 42 23 WNW 1021,6 41 36 0,0
19.06.2018 21:00:00 18,0 12,3 17,6 23,3 23,1 18,6 29 16 37 20 WNW 1021,1 36 60 0,0
19.06.2018 20:00:00 18,8 12,8 19,6 26,1 23,0 18,7 29 15 36 19 WNW 1020,9 34 60 0,0
19.06.2018 19:00:00 19,3 12,9 21,2 28,4 22,8 18,7 24 13 31 17 WNW 1020,9 61 59 0,0
19.06.2018 18:00:00 19,9 13,6 23,2 29,9 22,5 18,7 23 13 33 18 WNW 1020,6 41 56 0,0
19.06.2018 17:00:00 20,6 14,7 23,8 30,4 22,1 18,7 27 15 39 21 WNW 1020,3 12 54 0,0
19.06.2018 16:00:00 20,5 15,2 22,6 29,6 21,7 18,7 30 16 40 21 W 1020,1 28 33 0,0
19.06.2018 15:00:00 19,9 16,1 23,0 29,1 21,3 18,7 24 13 41 22 W 1019,9 21 40 0,0
19.06.2018 14:00:00 20,1 15,9 24,6 26,5 21,0 18,7 26 14 39 21 W 1019,6 20 17 0,0
19.06.2018 13:00:00 19,3 14,4 20,4 25,0 20,7 18,7 26 14 45 24 W 1019,3 22 5 0,0
19.06.2018 12:00:00 20,5 13,6 25,3 24,4 20,4 18,7 29 15 43 23 W 1019,0 16 26 0,0
19.06.2018 11:00:00 19,2 14,0 22,8 22,6 20,3 18,7 28 15 40 21 W 1018,8 18 16 0,0
19.06.2018 10:00:00 18,0 13,8 19,4 20,3 20,2 18,7 22 12 41 22 W 1018,6 16 0 0,0
19.06.2018 09:00:00 17,3 13,7 18,5 19,4 20,3 18,7 16 9 31 17 WZW 1017,9 15 2 0,0
19.06.2018 08:00:00 16,4 14,0 17,0 18,0 20,4 18,7 14 8 27 14 ZZW 1017,5 14 0 0,0
19.06.2018 07:00:00 16,2 13,9 16,3 17,7 20,6 18,7 16 8 24 13 ZW 1017,6 15 15 0,0
19.06.2018 06:00:00 16,4 13,7 16,0 17,4 20,8 18,7 11 6 42 23 WZW 1017,4 22 17 0,0

tt = temperatuur
td = dauwpunt
tt 5cm = temperatuur 5cm
tt -5cm = temperatuur -5cm
tt -20cm = temperatuur -20cm
tt -100cm = temperatuur -100cm
ff = windsnelheid
fx = windstoten
dd = windrichting
ppp = luchtdruk
vv = zicht
sd = Zonneschijnduur
rr = neerslag

Weerstations in de omgeving